When you browse on this site, cookies collect data to enhance your experience and personalize the content and advertising you see.
Visit our Privacy Policy to learn more. By continuing to use the site, you agree to this use of cookies and data.
  • In Deutschland
  • Länderverzeichnis
  • Für 7 Tage
  • Wassertemperatur
  • Satellitenkarten
  • Wetterkarte
  • Widgets
  • user-avatar
    Anmelden

    Stündliche Wetter Orvieto

    Heute, 19 November, Montag

    Zeit Temperatur Niederschläge Wind Luftdruck Luftfeuchtigkeit
    00:00 +4°C° 0 mm 2 m/S 739 mmHg 85%
    01:00 +3°C° 0 mm 2 m/S 738 mmHg 86%
    02:00 +3°C° 0 mm 2 m/S 738 mmHg 87%
    03:00 +3°C° 0 mm 2 m/S 738 mmHg 87%
    04:00 +3°C° 0 mm 2 m/S 738 mmHg 87%
    05:00 +3°C° 0 mm 2 m/S 737 mmHg 87%
    06:00 +3°C° 0 mm 2 m/S 737 mmHg 86%
    07:00 +3°C° 0 mm 2 m/S 737 mmHg 86%
    08:00 +4°C° 0 mm 2 m/S 737 mmHg 79%
    09:00 +6°C° 0 mm 2 m/S 737 mmHg 73%
    10:00 +8°C° 0 mm 2 m/S 737 mmHg 66%
    11:00 +8°C° 0 mm 2 m/S 736 mmHg 64%
    12:00 +9°C° 0 mm 2 m/S 736 mmHg 62%
    13:00 +10°C° 0 mm 2 m/S 735 mmHg 60%
    14:00 +10°C° 0.3 mm 2 m/S 734 mmHg 66%
    15:00 +9°C° 0.3 mm 2 m/S 734 mmHg 71%
    16:00 +8°C° 0.3 mm 3 m/S 733 mmHg 76%
    17:00 +8°C° 1.9 mm 3 m/S 732 mmHg 80%
    18:00 +7°C° 1.9 mm 3 m/S 732 mmHg 84%
    19:00 +7°C° 1.9 mm 3 m/S 731 mmHg 88%
    20:00 +7°C° 2.6 mm 3 m/S 731 mmHg 88%
    21:00 +7°C° 2.6 mm 3 m/S 731 mmHg 89%
    22:00 +7°C° 2.6 mm 3 m/S 730 mmHg 90%
    23:00 +7°C° 1.1 mm 3 m/S 730 mmHg 91%

    Morgen, 20 November, Dienstag

    Zeit Temperatur Niederschläge Wind Luftdruck Luftfeuchtigkeit
    00:00 +7°C° 1.1 mm 2 m/S 730 mmHg 92%
    01:00 +8°C° 1.1 mm 2 m/S 729 mmHg 93%
    02:00 +8°C° 0.5 mm 2 m/S 730 mmHg 93%
    03:00 +8°C° 0.5 mm 2 m/S 730 mmHg 93%
    04:00 +8°C° 0.5 mm 2 m/S 730 mmHg 93%
    05:00 +8°C° 0.4 mm 2 m/S 730 mmHg 93%
    06:00 +8°C° 0.4 mm 2 m/S 731 mmHg 93%
    07:00 +9°C° 0.4 mm 1 m/S 731 mmHg 93%
    08:00 +10°C° 0.1 mm 1 m/S 732 mmHg 91%
    09:00 +11°C° 0.1 mm 1 m/S 733 mmHg 88%
    10:00 +12°C° 0.1 mm 1 m/S 734 mmHg 86%
    11:00 +12°C° 0.1 mm 1 m/S 734 mmHg 85%
    12:00 +13°C° 0.1 mm 1 m/S 734 mmHg 84%
    13:00 +13°C° 0.1 mm 1 m/S 734 mmHg 83%
    14:00 +13°C° 0.2 mm 1 m/S 734 mmHg 84%
    15:00 +13°C° 0.2 mm 2 m/S 734 mmHg 86%
    16:00 +13°C° 0.2 mm 2 m/S 734 mmHg 87%
    17:00 +12°C° 0.2 mm 2 m/S 735 mmHg 88%
    18:00 +10°C° 0.2 mm 2 m/S 735 mmHg 89%
    19:00 +10°C° 0.2 mm 2 m/S 735 mmHg 91%
    20:00 +9°C° 0.1 mm 2 m/S 736 mmHg 91%
    21:00 +9°C° 0.1 mm 2 m/S 736 mmHg 91%
    22:00 +9°C° 0.1 mm 2 m/S 736 mmHg 92%
    23:00 +8°C° 0 mm 2 m/S 736 mmHg 92%

    übermorgen, 21 November, Mittwoch

    Zeit Temperatur Niederschläge Wind Luftdruck Luftfeuchtigkeit
    00:00 +8°C° 0 mm 2 m/S 737 mmHg 92%
    01:00 +8°C° 0 mm 2 m/S 737 mmHg 92%
    02:00 +9°C° 0.1 mm 1 m/S 737 mmHg 91%
    03:00 +9°C° 0.1 mm 1 m/S 737 mmHg 91%
    04:00 +9°C° 0.1 mm 1 m/S 737 mmHg 90%
    05:00 +9°C° 0 mm 1 m/S 738 mmHg 89%
    06:00 +9°C° 0 mm 1 m/S 738 mmHg 89%
    07:00 +10°C° 0 mm 1 m/S 738 mmHg 88%
    08:00 +11°C° 0 mm 1 m/S 739 mmHg 85%
    09:00 +12°C° 0 mm 1 m/S 739 mmHg 81%
    10:00 +13°C° 0 mm 1 m/S 740 mmHg 77%
    11:00 +14°C° 0 mm 2 m/S 740 mmHg 75%
    12:00 +16°C° 0 mm 2 m/S 740 mmHg 72%
    13:00 +17°C° 0 mm 3 m/S 740 mmHg 69%
    14:00 +16°C° 0.1 mm 2 m/S 740 mmHg 73%
    15:00 +15°C° 0.1 mm 2 m/S 740 mmHg 78%
    16:00 +15°C° 0.1 mm 2 m/S 740 mmHg 82%
    17:00 +14°C° 0.1 mm 2 m/S 741 mmHg 85%
    18:00 +13°C° 0.1 mm 2 m/S 741 mmHg 88%
    19:00 +12°C° 0.1 mm 2 m/S 741 mmHg 91%
    20:00 +12°C° 0.1 mm 2 m/S 741 mmHg 92%
    21:00 +12°C° 0.1 mm 2 m/S 742 mmHg 92%
    22:00 +12°C° 0.1 mm 2 m/S 742 mmHg 93%
    23:00 +10°C° 0.1 mm 2 m/S 742 mmHg 93%

    22 November, Donnerstag

    Zeit Temperatur Niederschläge Wind Luftdruck Luftfeuchtigkeit
    00:00 +10°C° 0.1 mm 2 m/S 743 mmHg 93%
    01:00 +11°C° 0.1 mm 1 m/S 743 mmHg 94%
    02:00 +11°C° 0.1 mm 1 m/S 743 mmHg 94%
    03:00 +11°C° 0.1 mm 1 m/S 743 mmHg 94%
    04:00 +11°C° 0.1 mm 1 m/S 743 mmHg 94%
    05:00 +11°C° 0.1 mm 1 m/S 743 mmHg 94%
    06:00 +11°C° 0.1 mm 1 m/S 744 mmHg 94%
    07:00 +10°C° 0.1 mm 1 m/S 744 mmHg 94%
    08:00 +12°C° 0 mm 1 m/S 745 mmHg 90%
    09:00 +13°C° 0 mm 1 m/S 745 mmHg 85%
    10:00 +15°C° 0 mm 1 m/S 745 mmHg 81%
    11:00 +15°C° 0.1 mm 1 m/S 745 mmHg 75%
    12:00 +16°C° 0.1 mm 1 m/S 746 mmHg 69%
    13:00 +18°C° 0.1 mm 1 m/S 746 mmHg 64%
    14:00 +18°C° 0.1 mm 1 m/S 746 mmHg 67%
    15:00 +16°C° 0.1 mm 1 m/S 746 mmHg 70%
    16:00 +15°C° 0.1 mm 1 m/S 746 mmHg 73%
    17:00 +14°C° 0 mm 1 m/S 746 mmHg 76%
    18:00 +13°C° 0 mm 1 m/S 746 mmHg 80%
    19:00 +12°C° 0 mm 1 m/S 747 mmHg 84%
    20:00 +11°C° 0 mm 1 m/S 747 mmHg 85%
    21:00 +11°C° 0 mm 1 m/S 747 mmHg 85%
    22:00 +11°C° 0 mm 1 m/S 748 mmHg 86%
    23:00 +11°C° 0 mm 1 m/S 748 mmHg 86%

    23 November, Freitag

    Zeit Temperatur Niederschläge Wind Luftdruck Luftfeuchtigkeit
    00:00 +10°C° 0 mm 1 m/S 748 mmHg 86%
    01:00 +10°C° 0 mm 1 m/S 748 mmHg 86%
    02:00 +10°C° 0 mm 1 m/S 748 mmHg 86%
    03:00 +10°C° 0 mm 1 m/S 748 mmHg 85%
    04:00 +9°C° 0 mm 1 m/S 748 mmHg 85%
    05:00 +9°C° 0 mm 1 m/S 748 mmHg 84%
    06:00 +9°C° 0 mm 1 m/S 748 mmHg 83%
    07:00 +9°C° 0 mm 1 m/S 749 mmHg 82%
    08:00 +11°C° 0 mm 1 m/S 749 mmHg 76%
    09:00 +12°C° 0 mm 1 m/S 749 mmHg 70%
    10:00 +14°C° 0 mm 1 m/S 750 mmHg 63%
    11:00 +15°C° 0 mm 1 m/S 749 mmHg 60%
    12:00 +16°C° 0 mm 1 m/S 749 mmHg 56%
    13:00 +18°C° 0 mm 1 m/S 749 mmHg 53%
    14:00 +18°C° 0 mm 1 m/S 749 mmHg 58%
    15:00 +16°C° 0 mm 1 m/S 749 mmHg 63%
    16:00 +15°C° 0 mm 1 m/S 748 mmHg 68%
    17:00 +14°C° 0 mm 1 m/S 748 mmHg 73%
    18:00 +13°C° 0 mm 1 m/S 748 mmHg 77%
    19:00 +12°C° 0 mm 1 m/S 748 mmHg 82%
    20:00 +12°C° 0 mm 1 m/S 748 mmHg 83%
    21:00 +12°C° 0 mm 1 m/S 748 mmHg 85%
    22:00 +11°C° 0 mm 1 m/S 748 mmHg 86%
    23:00 +10°C° 0 mm 2 m/S 748 mmHg 86%

    24 November, Samstag

    Zeit Temperatur Niederschläge Wind Luftdruck Luftfeuchtigkeit
    00:00 +10°C° 0 mm 2 m/S 748 mmHg 87%
    01:00 +10°C° 0 mm 2 m/S 747 mmHg 87%
    02:00 +10°C° 0 mm 2 m/S 747 mmHg 86%
    03:00 +10°C° 0 mm 2 m/S 747 mmHg 85%
    04:00 +10°C° 0 mm 2 m/S 746 mmHg 85%
    05:00 +10°C° 0 mm 2 m/S 746 mmHg 83%
    06:00 +12°C° 0 mm 2 m/S 746 mmHg 81%
    07:00 +11°C° 0 mm 3 m/S 746 mmHg 79%
    08:00 +12°C° 0 mm 3 m/S 746 mmHg 77%
    09:00 +13°C° 0 mm 4 m/S 746 mmHg 76%
    10:00 +14°C° 0 mm 4 m/S 746 mmHg 74%
    11:00 +15°C° 0.1 mm 5 m/S 746 mmHg 75%
    12:00 +15°C° 0.1 mm 5 m/S 745 mmHg 75%
    13:00 +16°C° 0.1 mm 5 m/S 745 mmHg 76%
    14:00 +16°C° 0.2 mm 5 m/S 745 mmHg 79%
    15:00 +15°C° 0.2 mm 4 m/S 745 mmHg 81%
    16:00 +15°C° 0.2 mm 4 m/S 745 mmHg 84%
    17:00 +15°C° 0.2 mm 4 m/S 745 mmHg 86%
    18:00 +14°C° 0.2 mm 3 m/S 745 mmHg 88%
    19:00 +14°C° 0.2 mm 3 m/S 745 mmHg 89%
    20:00 +14°C° 0.1 mm 3 m/S 745 mmHg 89%
    21:00 +14°C° 0.1 mm 3 m/S 745 mmHg 89%
    22:00 +14°C° 0.1 mm 3 m/S 745 mmHg 89%
    23:00 +14°C° 0.1 mm 3 m/S 744 mmHg 89%
    Mehr zeigen